Weather History for KBML - December, 1998

Change the Weather History Date:

Wednesday, December 30, 1998

  Actual Average (WUND) Record (WUND)
Temperature  
Mean Temperature 11 °F -  
Max Temperature 28 °F - - (-1)
Min Temperature -7 °F - - (-1)
Degree Days  
Heating Degree Days 54    
Moisture  
Dew Point 12 °F    
Average Humidity 82    
Maximum Humidity 100    
Minimum Humidity 58    
Precipitation  
Precipitation 0.12 in - - ()
Sea Level Pressure  
Sea Level Pressure 29.40 in    
Wind  
Wind Speed 4 mph (WNW)    
Max Wind Speed 28 mph    
Max Gust Speed 37 mph    
Visibility 3 miles    
Events Snow    
Averages and records for this station are not official NWS values.
T = Trace of Precipitation, MM = Missing Value Source: NWS Daily Summary

Daily Weather History Graph

Daily Weather History Graph

Search for Another Location

Airport or City:

Trip Planner

Search our weather history database for the weather conditions in past years. The results will help you decide how hot, cold, wet, or windy it might be!

Date:

Astronomy

Dec. 30, 1998 Rise Set
Actual Time 7:21 AM EST 4:13 PM EST
Civil Twilight 6:47 AM EST 4:46 PM EST
Nautical Twilight 6:11 AM EST 5:23 PM EST
Astronomical Twilight 5:35 AM EST 5:59 PM EST
Moon 2:27 PM EST (12/30) 4:12 AM EST (12/30)
Length of Visible Light 9h 58m
Length of Day
8h 52m
Waxing Gibbous, 92% of the Moon is Illuminated
Dec 30
Waxing Gibbous
Jan 1
Full
Jan 9
Last Quarter
Jan 17
New
Jan 24
First Quarter

Hourly Weather History & Observations

Time (EST) Temp. Windchill Dew Point Humidity Pressure Visibility Wind Dir Wind Speed Gust Speed Precip Events Conditions
12:52 AM 27.0 °F - 25.0 °F 92% 29.47 in 2.0 mi Calm Calm - 0.00 in Snow Light Snow
1:14 AM 26.6 °F 22.6 °F 24.8 °F 93% 29.40 in 2.0 mi Variable 3.5 mph - 0.00 in Snow Light Snow
1:41 AM 26.6 °F - 24.8 °F 93% 29.38 in 2.0 mi Calm Calm - 0.00 in Snow Light Snow
1:52 AM 27.0 °F - 25.0 °F 92% 29.43 in 2.0 mi Calm Calm - 0.00 in Snow Light Snow
2:00 AM 26.6 °F 22.6 °F 24.8 °F 93% 29.37 in 1.5 mi NNW 3.5 mph - 0.00 in Snow Light Snow
2:15 AM 26.6 °F - 24.8 °F 93% 29.36 in 1.2 mi Calm Calm - 0.01 in Snow Light Snow
2:26 AM 26.6 °F - 26.6 °F 100% 29.35 in 1.0 mi Calm Calm - 0.02 in Snow Light Snow
2:52 AM 28.0 °F - 25.0 °F 88% 29.40 in 1.0 mi Calm Calm - 0.03 in Snow Light Snow
3:52 AM 27.0 °F - 26.1 °F 96% 29.33 in 1.2 mi Calm Calm - 0.03 in Snow Light Snow
4:12 AM 26.6 °F - 26.6 °F 100% 29.27 in 1.8 mi Calm Calm - 0.00 in Snow Light Snow
4:19 AM 26.6 °F - 26.6 °F 100% 29.27 in 1.5 mi Calm Calm - 0.01 in Snow Light Snow
4:29 AM 28.4 °F - 26.6 °F 93% 29.26 in 1.2 mi Calm Calm - 0.01 in Snow Light Snow
4:42 AM 28.4 °F - 26.6 °F 93% 29.26 in 1.2 mi Calm Calm - 0.02 in Snow Light Snow
4:52 AM 28.0 °F - 26.1 °F 92% 29.30 in 1.2 mi Calm Calm - 0.02 in Snow Light Snow
4:59 AM 28.4 °F - 26.6 °F 93% 29.25 in 1.2 mi Calm Calm - 0.00 in Snow Light Snow
5:15 AM 28.4 °F - 26.6 °F 93% 29.25 in 1.8 mi Calm Calm - 0.01 in Snow Light Snow
5:18 AM 28.4 °F - 26.6 °F 93% 29.25 in 2.0 mi Calm Calm - 0.01 in Snow Light Snow
5:36 AM 28.4 °F - 26.6 °F 93% 29.24 in 1.5 mi Calm Calm - 0.01 in Snow Light Snow
5:45 AM 26.6 °F - 26.6 °F 100% 29.24 in 1.5 mi Calm Calm - 0.01 in Snow Light Snow
5:52 AM 27.0 °F - 26.1 °F 96% 29.28 in 1.5 mi Calm Calm - 0.01 in Snow Light Snow
6:16 AM 28.4 °F - 26.6 °F 93% 29.24 in 1.5 mi Calm Calm - 0.01 in Snow Light Snow
6:52 AM 27.0 °F - 26.1 °F 96% 29.28 in 2.0 mi Calm Calm - 0.02 in Snow Light Snow
7:15 AM 26.6 °F - 24.8 °F 93% 29.22 in 4.0 mi Calm Calm - 0.00 in Snow Light Snow
7:34 AM 26.6 °F - 26.6 °F 100% 29.22 in 1.8 mi Calm Calm - 0.00 in Snow Light Snow
7:37 AM 26.6 °F - 26.6 °F 100% 29.22 in 1.2 mi Calm Calm - 0.00 in Snow Light Snow
7:52 AM 26.1 °F - 25.0 °F 96% 29.26 in 1.0 mi Calm Calm - 0.00 in Snow Light Snow
8:01 AM 26.6 °F - 24.8 °F 93% 29.22 in 1.2 mi Calm Calm - 0.00 in Snow Light Snow
8:06 AM 26.6 °F - 24.8 °F 93% 29.21 in 2.0 mi Calm Calm - 0.00 in Snow Light Snow
8:14 AM 26.6 °F - 24.8 °F 93% 29.21 in 3.0 mi Calm Calm - 0.00 in Snow Light Snow
8:38 AM 26.6 °F - 26.6 °F 100% 29.20 in 5.0 mi Calm Calm - 0.00 in   Overcast
8:52 AM 27.0 °F - 26.1 °F 96% 29.25 in 6.0 mi Calm Calm - 0.00 in   Overcast
9:26 AM 28.4 °F - 26.6 °F 93% 29.21 in 2.0 mi Calm Calm - 0.00 in Snow Light Snow
9:41 AM 28.4 °F - 26.6 °F 93% 29.22 in 1.5 mi Calm Calm - 0.00 in Snow Light Snow
9:52 AM 28.0 °F - 26.1 °F 92% 29.27 in 1.5 mi Calm Calm - 0.00 in Snow Light Snow
10:07 AM 28.4 °F 19.7 °F 26.6 °F 93% 29.22 in 2.0 mi West 9.2 mph - 0.01 in Snow Light Snow
10:11 AM 28.4 °F 19.7 °F 24.8 °F 86% 29.23 in 1.8 mi West 9.2 mph 19.6 mph 0.01 in Snow Light Snow
10:24 AM 26.6 °F 17.5 °F 21.2 °F 80% 29.24 in 2.5 mi West 9.2 mph - 0.01 in Snow Light Snow
10:37 AM 24.8 °F 16.9 °F 19.4 °F 80% 29.25 in 3.0 mi Variable 6.9 mph - 0.01 in Snow Light Snow
10:42 AM 23.0 °F 13.1 °F 17.6 °F 80% 29.26 in 1.8 mi West 9.2 mph - 0.01 in Snow Light Snow
10:52 AM 19.9 °F 7.9 °F 15.1 °F 81% 29.32 in 1.2 mi West 11.5 mph 19.6 mph 0.01 in Snow Light Snow
11:27 AM 15.8 °F 1.4 °F 10.4 °F 79% 29.30 in 0.8 mi West 13.8 mph 19.6 mph 0.00 in Snow Light Snow
11:45 AM 15.8 °F 3.4 °F 8.6 °F 73% 29.32 in 1.5 mi West 10.4 mph 23.0 mph 0.00 in Snow Light Snow
11:52 AM 14.0 °F 1.2 °F 8.1 °F 77% 29.38 in 1.2 mi West 10.4 mph - 0.00 in Snow Light Snow
12:02 PM 12.2 °F -1.8 °F 6.8 °F 79% 29.34 in 1.5 mi West 11.5 mph 17.3 mph 0.00 in Snow Light Snow
12:09 PM 12.2 °F -1.0 °F 6.8 °F 79% 29.34 in 1.8 mi West 10.4 mph 19.6 mph 0.00 in Snow Light Snow
12:23 PM 12.2 °F -1.8 °F 5.0 °F 73% 29.35 in 1.2 mi WNW 11.5 mph 20.7 mph 0.00 in Snow Light Snow
12:36 PM 10.4 °F -4.8 °F 3.2 °F 73% 29.36 in 2.0 mi West 12.7 mph 20.7 mph 0.00 in Snow Light Snow
12:52 PM 10.0 °F -2.9 °F -0.0 °F 64% 29.43 in 9.0 mi West 9.2 mph 23.0 mph 0.00 in   Overcast
1:33 PM 8.6 °F -6.3 °F -2.2 °F 62% 29.40 in 10.0 mi West 11.5 mph 17.3 mph N/A   Overcast
1:52 PM 8.1 °F -4.3 °F -4.0 °F 58% 29.47 in 10.0 mi West 8.1 mph 20.7 mph N/A   Overcast
2:52 PM 5.0 °F -8.1 °F -7.1 °F 58% 29.52 in 10.0 mi WNW 8.1 mph - N/A   Overcast
3:52 PM 1.0 °F -19.3 °F -9.9 °F 60% 29.56 in 9.0 mi West 17.3 mph 25.3 mph N/A   Mostly Cloudy
4:03 PM 1.4 °F -17.6 °F -9.4 °F 61% 29.51 in 9.0 mi West 15.0 mph 21.9 mph N/A   Mostly Cloudy
4:52 PM -0.0 °F -20.1 °F -9.9 °F 63% 29.60 in 9.0 mi WNW 16.1 mph 24.2 mph N/A   Overcast
5:52 PM -0.9 °F -18.3 °F -9.9 °F 66% 29.63 in 5.0 mi WNW 11.5 mph 25.3 mph N/A   Haze
6:52 PM -2.0 °F -18.7 °F -9.9 °F 69% 29.65 in 6.0 mi WNW 10.4 mph 18.4 mph N/A   Haze
7:13 PM -2.2 °F -20.7 °F -11.2 °F 66% 29.59 in 5.0 mi WNW 12.7 mph 23.0 mph N/A   Haze
7:37 PM -2.2 °F -24.1 °F -11.2 °F 66% 29.61 in 3.0 mi West 18.4 mph 27.6 mph N/A   Haze
7:52 PM -2.9 °F -25.0 °F -11.9 °F 65% 29.68 in 3.0 mi West 18.4 mph 29.9 mph N/A   Haze
8:52 PM -4.0 °F -28.1 °F -13.0 °F 65% 29.73 in 4.0 mi West 21.9 mph 28.8 mph 0.00 in   Haze
9:07 PM -4.0 °F -30.4 °F -13.0 °F 65% 29.64 in 2.0 mi West 27.6 mph 35.7 mph 0.00 in   Mostly Cloudy
9:23 PM -4.0 °F -28.1 °F -14.8 °F 60% 29.68 in 3.0 mi West 21.9 mph 36.8 mph 0.00 in   Overcast
9:52 PM -5.1 °F -29.0 °F -15.0 °F 62% 29.78 in 8.0 mi WNW 20.7 mph 31.1 mph 0.00 in   Overcast
10:15 PM -5.8 °F -29.9 °F -16.6 °F 60% 29.72 in 8.0 mi West 20.7 mph 27.6 mph N/A   Partly Cloudy
10:52 PM -6.0 °F -28.4 °F -17.0 °F 59% 29.84 in 9.0 mi WNW 17.3 mph 28.8 mph N/A   Clear
11:11 PM -5.8 °F -27.5 °F -14.8 °F 65% 29.77 in 6.0 mi WNW 16.1 mph 25.3 mph N/A   Haze
11:32 PM -5.8 °F -27.5 °F -16.6 °F 60% 29.77 in 8.0 mi WNW 16.1 mph 27.6 mph N/A   Scattered Clouds
11:52 PM -7.1 °F -26.8 °F -16.1 °F 65% 29.87 in 10.0 mi NW 12.7 mph 21.9 mph N/A   Clear